"read_dt","SO2 (ppb)","flags","PMT voltage (V)","lamp voltage (V)","lamp intensity (Hz)","internal temp (C)","react chamber temp (C)","sample flow (l/min)","pres (mmHg)","SO2 bkg (ppb)","SO2 coefficient"
2014-06-19 00:00:00,1866E-3,5C000000,-0724,0840,12147,025.9,045.4,0.488,738.2,01.18,0.508
2014-06-19 00:01:00,1845E-3,5C000000,-0724,0840,12115,025.9,045.4,0.489,738.2,01.18,0.508
2014-06-19 00:02:00,1889E-3,5C000000,-0724,0840,12178,025.9,045.4,0.489,738.2,01.18,0.508
2014-06-19 00:03:00,1876E-3,5C000000,-0724,0841,12264,025.9,045.4,0.488,738.2,01.18,0.508
2014-06-19 00:04:00,1733E-3,5C000000,-0724,0839,12140,025.9,045.4,0.489,738.1,01.18,0.508
2014-06-19 00:05:00,1848E-3,5C000000,-0724,0840,12133,025.9,045.4,0.489,738.1,01.18,0.508
2014-06-19 00:06:00,1747E-3,5C000000,-0724,0840,12147,025.9,045.4,0.488,738.2,01.18,0.508
2014-06-19 00:07:00,1862E-3,5C000000,-0724,0840,12192,025.9,045.4,0.489,738.2,01.18,0.508
2014-06-19 00:08:00,1932E-3,5C000000,-0724,0840,12098,025.9,045.4,0.489,738.2,01.18,0.508
2014-06-19 00:09:00,1817E-3,5C000000,-0724,0841,12361,025.9,045.4,0.488,738.2,01.18,0.508
2014-06-19 00:10:00,1836E-3,5C000000,-0724,0840,12035,025.9,045.4,0.489,738.2,01.18,0.508
2014-06-19 00:11:00,1811E-3,5C000000,-0724,0840,12178,025.9,045.4,0.489,738.1,01.18,0.508
2014-06-19 00:12:00,1712E-3,5C000000,-0724,0841,12119,025.9,045.4,0.488,738.1,01.18,0.508
2014-06-19 00:13:00,1747E-3,5C000000,-0724,0841,12065,025.9,045.4,0.489,738.1,01.18,0.508
2014-06-19 00:14:00,1879E-3,5C000000,-0724,0840,12058,025.9,045.4,0.489,738.1,01.18,0.508
2014-06-19 00:15:00,1821E-3,5C000000,-0724,0841,11993,025.9,045.4,0.488,738.1,01.18,0.508
2014-06-19 00:16:00,1824E-3,5C000000,-0724,0840,12059,025.9,045.4,0.489,738.1,01.18,0.508
2014-06-19 00:17:00,1762E-3,5C000000,-0724,0841,12159,025.9,045.4,0.489,738.1,01.18,0.508
2014-06-19 00:18:00,1881E-3,5C000000,-0724,0841,12145,025.9,045.4,0.488,738.1,01.18,0.508
2014-06-19 00:19:00,1817E-3,5C000000,-0724,0841,11970,025.9,045.4,0.489,738.1,01.18,0.508
2014-06-19 00:20:00,1831E-3,5C000000,-0724,0840,12137,025.9,045.4,0.489,738.0,01.18,0.508
2014-06-19 00:21:00,1754E-3,5C000000,-0724,0841,12031,025.9,045.4,0.488,738.0,01.18,0.508
2014-06-19 00:22:00,1850E-3,5C000000,-0724,0841,12240,025.9,045.4,0.489,738.0,01.18,0.508
2014-06-19 00:23:00,1925E-3,5C000000,-0724,0840,12092,025.9,045.4,0.489,738.0,01.18,0.508
2014-06-19 00:24:00,1807E-3,5C000000,-0724,0840,12153,025.9,045.4,0.488,738.0,01.18,0.508
2014-06-19 00:25:00,1760E-3,5C000000,-0724,0840,12065,025.9,045.4,0.489,738.0,01.18,0.508
2014-06-19 00:26:00,1941E-3,5C000000,-0724,0839,11839,025.9,045.4,0.489,738.0,01.18,0.508
2014-06-19 00:27:00,1946E-3,5C000000,-0724,0841,12144,025.9,045.4,0.488,738.0,01.18,0.508
2014-06-19 00:28:00,1857E-3,5C000000,-0724,0841,12178,025.9,045.4,0.489,738.0,01.18,0.508
2014-06-19 00:29:00,1862E-3,5C000000,-0724,0841,12122,025.9,045.4,0.488,737.9,01.18,0.508
2014-06-19 00:30:00,1838E-3,5C000000,-0724,0841,12137,025.9,045.5,0.488,737.9,01.18,0.508
2014-06-19 00:31:00,1870E-3,5C000000,-0724,0841,12270,025.9,045.4,0.489,737.9,01.18,0.508
2014-06-19 00:32:00,1824E-3,5C000000,-0724,0840,12129,025.9,045.4,0.488,737.9,01.18,0.508
2014-06-19 00:33:00,1855E-3,5C000000,-0724,0841,12121,025.9,045.4,0.488,737.9,01.18,0.508
2014-06-19 00:34:00,1703E-3,5C000000,-0724,0840,12211,025.9,045.4,0.489,738.0,01.18,0.508
2014-06-19 00:35:00,1771E-3,5C000000,-0724,0841,12298,025.9,045.4,0.488,738.0,01.18,0.508
2014-06-19 00:36:00,1820E-3,5C000000,-0724,0841,12115,025.9,045.4,0.488,738.0,01.18,0.508
2014-06-19 00:37:00,1863E-3,5C000000,-0724,0840,12071,025.9,045.4,0.489,738.0,01.18,0.508
2014-06-19 00:38:00,1888E-3,5C000000,-0724,0840,12230,025.9,045.4,0.489,738.1,01.18,0.508
2014-06-19 00:39:00,1759E-3,5C000000,-0724,0840,12057,025.9,045.4,0.488,738.0,01.18,0.508
2014-06-19 00:40:00,1884E-3,5C000000,-0724,0840,12073,025.9,045.5,0.489,738.1,01.18,0.508
2014-06-19 00:41:00,1870E-3,5C000000,-0724,0840,11914,025.9,045.4,0.489,738.1,01.18,0.508
2014-06-19 00:42:00,1745E-3,5C000000,-0724,0841,12084,025.9,045.4,0.488,738.1,01.18,0.508
2014-06-19 00:43:00,1842E-3,5C000000,-0724,0841,12246,025.9,045.4,0.489,738.1,01.18,0.508
2014-06-19 00:44:00,1829E-3,5C000000,-0724,0840,11981,025.9,045.4,0.489,738.1,01.18,0.508
2014-06-19 00:45:00,1888E-3,5C000000,-0724,0840,12086,025.9,045.4,0.488,738.1,01.18,0.508
2014-06-19 00:46:00,1700E-3,5C000000,-0724,0841,12212,025.9,045.4,0.488,738.0,01.18,0.508
2014-06-19 00:47:00,1871E-3,5C000000,-0724,0841,12048,025.9,045.4,0.489,738.0,01.18,0.508
2014-06-19 00:48:00,1873E-3,5C000000,-0724,0841,11860,025.9,045.4,0.488,738.0,01.18,0.508
2014-06-19 00:49:00,1746E-3,5C000000,-0724,0840,12083,025.9,045.4,0.488,738.0,01.18,0.508
2014-06-19 00:50:00,1875E-3,5C000000,-0724,0841,12191,025.9,045.4,0.489,738.0,01.18,0.508
2014-06-19 00:51:00,1866E-3,5C000000,-0724,0840,11897,025.9,045.4,0.488,738.0,01.18,0.508
2014-06-19 00:52:00,1903E-3,5C000000,-0724,0840,12068,025.9,045.4,0.488,738.0,01.18,0.508
2014-06-19 00:53:00,1747E-3,5C000000,-0724,0841,12077,025.9,045.4,0.489,738.0,01.18,0.508
2014-06-19 00:54:00,1776E-3,5C000000,-0724,0839,12181,025.9,045.4,0.488,738.0,01.18,0.508
2014-06-19 00:55:00,2022E-3,5C000000,-0724,0840,11939,025.9,045.4,0.488,738.0,01.18,0.508
2014-06-19 00:56:00,1894E-3,5C000000,-0724,0840,12029,025.9,045.4,0.489,738.0,01.18,0.508
2014-06-19 00:57:00,1836E-3,5C000000,-0724,0841,12169,025.9,045.4,0.488,737.9,01.18,0.508
2014-06-19 00:58:00,1852E-3,5C000000,-0724,0840,11993,025.9,045.4,0.488,737.9,01.18,0.508
2014-06-19 00:59:00,1829E-3,5C000000,-0724,0840,12101,025.9,045.4,0.489,737.9,01.18,0.508
2014-06-19 01:00:00,1981E-3,5C000000,-0724,0840,12079,025.9,045.4,0.488,737.9,01.18,0.508
2014-06-19 01:01:00,1782E-3,5C000000,-0724,0842,12239,025.9,045.4,0.488,737.9,01.18,0.508
2014-06-19 01:02:00,1730E-3,5C000000,-0724,0841,12227,025.9,045.4,0.489,737.9,01.18,0.508
2014-06-19 01:03:00,1736E-3,5C000000,-0724,0841,12043,025.9,045.4,0.489,737.9,01.18,0.508
2014-06-19 01:04:00,1811E-3,5C000000,-0724,0841,12196,025.9,045.4,0.488,737.8,01.18,0.508
2014-06-19 01:05:00,1770E-3,5C000000,-0724,0840,12162,025.9,045.4,0.488,737.8,01.18,0.508
2014-06-19 01:06:00,1784E-3,5C000000,-0724,0840,12112,025.9,045.4,0.489,737.8,01.18,0.508
2014-06-19 01:07:00,1849E-3,5C000000,-0724,0840,12181,026.0,045.4,0.488,737.8,01.18,0.508
2014-06-19 01:08:00,1981E-3,5C000000,-0724,0840,11984,025.9,045.5,0.488,737.8,01.18,0.508
2014-06-19 01:09:00,1705E-3,5C000000,-0724,0841,12049,026.0,045.4,0.489,737.8,01.18,0.508
2014-06-19 01:10:00,1799E-3,5C000000,-0724,0840,12322,026.0,045.4,0.488,737.7,01.18,0.508
2014-06-19 01:11:00,1743E-3,5C000000,-0724,0840,12219,025.9,045.4,0.489,737.8,01.18,0.508
2014-06-19 01:12:00,1779E-3,5C000000,-0724,0840,12054,025.9,045.4,0.489,737.8,01.18,0.508
2014-06-19 01:13:00,1712E-3,5C000000,-0724,0841,12017,025.9,045.4,0.488,737.8,01.18,0.508
2014-06-19 01:14:00,1889E-3,5C000000,-0724,0841,11962,025.9,045.4,0.488,737.8,01.18,0.508
2014-06-19 01:15:00,1875E-3,5C000000,-0724,0840,11935,025.9,045.4,0.489,737.7,01.18,0.508
2014-06-19 01:16:00,1765E-3,5C000000,-0724,0840,12131,025.9,045.4,0.488,737.7,01.18,0.508
2014-06-19 01:17:00,1982E-3,5C000000,-0724,0840,12063,025.9,045.4,0.488,737.7,01.18,0.508
2014-06-19 01:18:00,1774E-3,5C000000,-0724,0839,12064,025.9,045.4,0.488,737.7,01.18,0.508
2014-06-19 01:19:00,1861E-3,5C000000,-0724,0840,12208,025.9,045.4,0.488,737.7,01.18,0.508
2014-06-19 01:20:00,1806E-3,5C000000,-0724,0840,12027,025.9,045.4,0.488,737.7,01.18,0.508
2014-06-19 01:21:00,1913E-3,5C000000,-0724,0841,12146,025.9,045.4,0.488,737.7,01.18,0.508
2014-06-19 01:22:00,1838E-3,5C000000,-0724,0840,12112,025.9,045.4,0.488,737.7,01.18,0.508
2014-06-19 01:23:00,1758E-3,5C000000,-0724,0840,11983,025.9,045.5,0.488,737.7,01.18,0.508
2014-06-19 01:24:00,1790E-3,5C000000,-0724,0841,12069,025.9,045.5,0.488,737.7,01.18,0.508
2014-06-19 01:25:00,1750E-3,5C000000,-0724,0840,12114,025.9,045.4,0.488,737.7,01.18,0.508
2014-06-19 01:26:00,1884E-3,5C000000,-0724,0840,12126,025.9,045.4,0.489,737.7,01.18,0.508
2014-06-19 01:27:00,1897E-3,5C000000,-0724,0840,11997,025.9,045.4,0.488,737.7,01.18,0.508
2014-06-19 01:28:00,1874E-3,5C000000,-0724,0841,11955,025.9,045.4,0.488,737.7,01.18,0.508
2014-06-19 01:29:00,1719E-3,5C000000,-0724,0840,12142,025.9,045.4,0.489,737.7,01.18,0.508
2014-06-19 01:30:00,1822E-3,5C000000,-0724,0839,12234,025.9,045.4,0.488,737.6,01.18,0.508
2014-06-19 01:31:00,1755E-3,5C000000,-0724,0840,12136,025.9,045.4,0.488,737.6,01.18,0.508
2014-06-19 01:32:00,1750E-3,5C000000,-0724,0840,11976,025.9,045.4,0.489,737.6,01.18,0.508
2014-06-19 01:33:00,1752E-3,5C000000,-0724,0841,11580,025.9,045.4,0.488,737.6,01.18,0.508
2014-06-19 01:34:00,1933E-3,5C000000,-0724,0840,12211,025.9,045.4,0.488,737.6,01.18,0.508
2014-06-19 01:35:00,1920E-3,5C000000,-0724,0840,12015,025.9,045.4,0.488,737.6,01.18,0.508
2014-06-19 01:36:00,1866E-3,5C000000,-0724,0840,12135,025.9,045.4,0.488,737.6,01.18,0.508
2014-06-19 01:37:00,1879E-3,5C000000,-0724,0840,12008,025.9,045.4,0.489,737.6,01.18,0.508
2014-06-19 01:38:00,1889E-3,5C000000,-0724,0841,12076,025.9,045.4,0.488,737.7,01.18,0.508
2014-06-19 01:39:00,1924E-3,5C000000,-0724,0840,12098,025.9,045.4,0.488,737.7,01.18,0.508
2014-06-19 01:40:00,1865E-3,5C000000,-0724,0841,12168,025.9,045.4,0.489,737.7,01.18,0.508
2014-06-19 01:41:00,1887E-3,5C000000,-0724,0841,12075,025.9,045.5,0.488,737.6,01.18,0.508
2014-06-19 01:42:00,1896E-3,5C000000,-0724,0840,11836,025.9,045.5,0.488,737.6,01.18,0.508
2014-06-19 01:43:00,1754E-3,5C000000,-0724,0840,12002,025.9,045.4,0.488,737.6,01.18,0.508
2014-06-19 01:44:00,1775E-3,5C000000,-0724,0842,11958,026.0,045.4,0.488,737.6,01.18,0.508
2014-06-19 01:45:00,1840E-3,5C000000,-0724,0841,12233,026.0,045.4,0.488,737.6,01.18,0.508
2014-06-19 01:46:00,1698E-3,5C000000,-0724,0840,12038,025.9,045.4,0.488,737.6,01.18,0.508
2014-06-19 01:47:00,1973E-3,5C000000,-0724,0839,12146,026.0,045.4,0.488,737.6,01.18,0.508
2014-06-19 01:48:00,1861E-3,5C000000,-0724,0841,12092,025.9,045.4,0.488,737.6,01.18,0.508
2014-06-19 01:49:00,1931E-3,5C000000,-0724,0840,12250,026.0,045.4,0.488,737.6,01.18,0.508
2014-06-19 01:50:00,1947E-3,5C000000,-0724,0840,11875,026.0,045.4,0.488,737.6,01.18,0.508
2014-06-19 01:51:00,1952E-3,5C000000,-0724,0840,12102,026.0,045.4,0.488,737.6,01.18,0.508
2014-06-19 01:52:00,1776E-3,5C000000,-0724,0840,12059,026.0,045.4,0.488,737.7,01.18,0.508
2014-06-19 01:53:00,1918E-3,5C000000,-0724,0840,11960,025.9,045.4,0.488,737.7,01.18,0.508
2014-06-19 01:54:00,1761E-3,5C000000,-0724,0840,12018,026.0,045.4,0.489,737.7,01.18,0.508
2014-06-19 01:55:00,1818E-3,5C000000,-0724,0841,12201,026.0,045.4,0.488,737.7,01.18,0.508
2014-06-19 01:56:00,1977E-3,5C000000,-0724,0839,12052,026.0,045.4,0.488,737.6,01.18,0.508
2014-06-19 01:57:00,1880E-3,5C000000,-0724,0839,12000,026.0,045.5,0.488,737.6,01.18,0.508
2014-06-19 01:58:00,1876E-3,5C000000,-0724,0840,12271,026.0,045.4,0.488,737.6,01.18,0.508
2014-06-19 01:59:00,1760E-3,5C000000,-0724,0840,12081,026.0,045.4,0.488,737.6,01.18,0.508
2014-06-19 02:00:00,1800E-3,5C000000,-0724,0840,12190,026.0,045.4,0.488,737.6,01.18,0.508
2014-06-19 02:01:00,1864E-3,5C000000,-0724,0839,11994,026.0,045.5,0.488,737.6,01.18,0.508
2014-06-19 02:02:00,1822E-3,5C000000,-0724,0840,12088,026.0,045.4,0.488,737.6,01.18,0.508
2014-06-19 02:03:00,1768E-3,5C000000,-0724,0841,11987,026.0,045.4,0.488,737.5,01.18,0.508
2014-06-19 02:04:00,1950E-3,5C000000,-0724,0840,12075,026.0,045.4,0.488,737.6,01.18,0.508
2014-06-19 02:05:00,1923E-3,5C000000,-0724,0840,12071,026.0,045.4,0.488,737.5,01.18,0.508
2014-06-19 02:06:00,1768E-3,5C000000,-0724,0840,12196,026.0,045.4,0.488,737.6,01.18,0.508
2014-06-19 02:07:00,1684E-3,5C000000,-0724,0840,11974,026.0,045.4,0.488,737.6,01.18,0.508
2014-06-19 02:08:00,1714E-3,5C000000,-0724,0840,11936,026.0,045.4,0.488,737.6,01.18,0.508
2014-06-19 02:09:00,1802E-3,5C000000,-0724,0840,11948,026.0,045.4,0.488,737.5,01.18,0.508
2014-06-19 02:10:00,1725E-3,5C000000,-0724,0840,12008,026.0,045.4,0.488,737.5,01.18,0.508
2014-06-19 02:11:00,1747E-3,5C000000,-0724,0840,11949,026.0,045.4,0.488,737.5,01.18,0.508
2014-06-19 02:12:00,1758E-3,5C000000,-0724,0840,12006,026.0,045.4,0.488,737.5,01.18,0.508
2014-06-19 02:13:00,1862E-3,5C000000,-0724,0840,11924,026.0,045.4,0.488,737.5,01.18,0.508
2014-06-19 02:14:00,1839E-3,5C000000,-0724,0841,12025,026.0,045.4,0.488,737.6,01.18,0.508
2014-06-19 02:15:00,2038E-3,5C000000,-0724,0841,12105,026.1,045.4,0.488,737.6,01.18,0.508
2014-06-19 02:16:00,1780E-3,5C000000,-0724,0841,12033,026.1,045.4,0.488,737.6,01.18,0.508
2014-06-19 02:17:00,1873E-3,5C000000,-0724,0840,12082,026.1,045.5,0.488,737.6,01.18,0.508
2014-06-19 02:18:00,1860E-3,5C000000,-0724,0840,11979,026.1,045.4,0.488,737.6,01.18,0.508
2014-06-19 02:19:00,1699E-3,5C000000,-0724,0840,12093,026.1,045.4,0.488,737.6,01.18,0.508
2014-06-19 02:20:00,1724E-3,5C000000,-0724,0841,11983,026.1,045.4,0.488,737.6,01.18,0.508
2014-06-19 02:21:00,1755E-3,5C000000,-0724,0840,12221,026.1,045.4,0.488,737.5,01.18,0.508
2014-06-19 02:22:00,1899E-3,5C000000,-0724,0840,12190,026.1,045.5,0.488,737.5,01.18,0.508
2014-06-19 02:23:00,1913E-3,5C000000,-0724,0842,12152,026.1,045.4,0.488,737.4,01.18,0.508
2014-06-19 02:24:00,1792E-3,5C000000,-0724,0841,12243,026.1,045.4,0.488,737.5,01.18,0.508
2014-06-19 02:25:00,1830E-3,5C000000,-0724,0839,12000,026.1,045.4,0.488,737.4,01.18,0.508
2014-06-19 02:26:00,1852E-3,5C000000,-0724,0840,11927,026.1,045.4,0.488,737.4,01.18,0.508
2014-06-19 02:27:00,1981E-3,5C000000,-0724,0840,12161,026.2,045.4,0.487,737.5,01.18,0.508
2014-06-19 02:28:00,1826E-3,5C000000,-0724,0841,12168,026.1,045.4,0.488,737.4,01.18,0.508
2014-06-19 02:29:00,1727E-3,5C000000,-0724,0840,12113,026.1,045.5,0.488,737.5,01.18,0.508
2014-06-19 02:30:00,1762E-3,5C000000,-0724,0840,12047,026.2,045.4,0.488,737.5,01.18,0.508
2014-06-19 02:31:00,1819E-3,5C000000,-0724,0840,12242,026.2,045.4,0.488,737.5,01.18,0.508
2014-06-19 02:32:00,1906E-3,5C000000,-0724,0841,12136,026.2,045.4,0.488,737.5,01.18,0.508
2014-06-19 02:33:00,1799E-3,5C000000,-0724,0841,12254,026.2,045.5,0.488,737.5,01.18,0.508
2014-06-19 02:34:00,1794E-3,5C000000,-0724,0839,11980,026.2,045.4,0.487,737.5,01.18,0.508
2014-06-19 02:35:00,1940E-3,5C000000,-0724,0840,12160,026.2,045.4,0.488,737.4,01.18,0.508
2014-06-19 02:36:00,1856E-3,5C000000,-0724,0840,12135,026.2,045.4,0.488,737.5,01.18,0.508
2014-06-19 02:37:00,1828E-3,5C000000,-0724,0840,12126,026.2,045.5,0.488,737.5,01.18,0.508
2014-06-19 02:38:00,1708E-3,5C000000,-0724,0841,12277,026.2,045.5,0.487,737.5,01.18,0.508
2014-06-19 02:39:00,1933E-3,5C000000,-0724,0840,12040,026.2,045.4,0.488,737.5,01.18,0.508
2014-06-19 02:40:00,1850E-3,5C000000,-0724,0840,11990,026.3,045.4,0.488,737.5,01.18,0.508
2014-06-19 02:41:00,1954E-3,5C000000,-0724,0841,11963,026.3,045.4,0.487,737.5,01.18,0.508
2014-06-19 02:42:00,1848E-3,5C000000,-0724,0840,12164,026.3,045.5,0.487,737.5,01.18,0.508
2014-06-19 02:43:00,1742E-3,5C000000,-0724,0841,12186,026.3,045.4,0.487,737.5,01.18,0.508
2014-06-19 02:44:00,1876E-3,5C000000,-0724,0840,11973,026.3,045.4,0.488,737.5,01.18,0.508
2014-06-19 02:45:00,1987E-3,5C000000,-0724,0840,11936,026.3,045.5,0.488,737.6,01.18,0.508
2014-06-19 02:46:00,1818E-3,5C000000,-0724,0840,12166,026.3,045.5,0.487,737.6,01.18,0.508
2014-06-19 02:47:00,1869E-3,5C000000,-0724,0840,12041,026.3,045.4,0.487,737.6,01.18,0.508
2014-06-19 02:48:00,1854E-3,5C000000,-0724,0840,12023,026.3,045.4,0.488,737.5,01.18,0.508
2014-06-19 02:49:00,1863E-3,5C000000,-0724,0839,12092,026.3,045.4,0.488,737.6,01.18,0.508
2014-06-19 02:50:00,1903E-3,5C000000,-0724,0840,12072,026.4,045.4,0.488,737.6,01.18,0.508
2014-06-19 02:51:00,1883E-3,5C000000,-0724,0840,12122,026.4,045.5,0.487,737.6,01.18,0.508
2014-06-19 02:52:00,1933E-3,5C000000,-0724,0841,12038,026.4,045.5,0.487,737.6,01.18,0.508
2014-06-19 02:53:00,1921E-3,5C000000,-0724,0841,12166,026.4,045.4,0.488,737.6,01.18,0.508
2014-06-19 02:54:00,1858E-3,5C000000,-0724,0841,11848,026.4,045.4,0.488,737.7,01.18,0.508
2014-06-19 02:55:00,1880E-3,5C000000,-0724,0841,12204,026.4,045.5,0.488,737.6,01.18,0.508
2014-06-19 02:56:00,1861E-3,5C000000,-0724,0841,11904,026.4,045.5,0.487,737.7,01.18,0.508
2014-06-19 02:57:00,1792E-3,5C000000,-0724,0841,12138,026.4,045.5,0.487,737.7,01.18,0.508
2014-06-19 02:58:00,1732E-3,5C000000,-0724,0841,12184,026.4,045.4,0.487,737.7,01.18,0.508
2014-06-19 02:59:00,1901E-3,5C000000,-0724,0840,12047,026.4,045.4,0.488,737.6,01.18,0.508
2014-06-19 03:00:00,1762E-3,5C000000,-0724,0840,11967,026.4,045.5,0.488,737.7,01.18,0.508
2014-06-19 03:01:00,1966E-3,5C000000,-0724,0840,12108,026.4,045.5,0.487,737.7,01.18,0.508
2014-06-19 03:02:00,1873E-3,5C000000,-0724,0840,11927,026.4,045.4,0.487,737.7,01.18,0.508
2014-06-19 03:03:00,1771E-3,5C000000,-0724,0840,12104,026.4,045.5,0.487,737.8,01.18,0.508
2014-06-19 03:04:00,1936E-3,5C000000,-0724,0840,12040,026.5,045.5,0.488,737.9,01.18,0.508
2014-06-19 03:05:00,1881E-3,5C000000,-0724,0839,12178,026.5,045.4,0.488,737.9,01.18,0.508
2014-06-19 03:06:00,1758E-3,5C000000,-0724,0840,12128,026.5,045.5,0.488,737.9,01.18,0.508
2014-06-19 03:07:00,1818E-3,5C000000,-0724,0841,12065,026.5,045.5,0.487,737.9,01.18,0.508
2014-06-19 03:08:00,1849E-3,5C000000,-0724,0841,12088,026.5,045.4,0.487,737.9,01.18,0.508
2014-06-19 03:09:00,1896E-3,5C000000,-0724,0842,12191,026.5,045.4,0.487,738.0,01.18,0.508
2014-06-19 03:10:00,1682E-3,5C000000,-0724,0841,11983,026.5,045.5,0.487,738.0,01.18,0.508
2014-06-19 03:11:00,1811E-3,5C000000,-0724,0840,12081,026.5,045.5,0.487,738.0,01.18,0.508
2014-06-19 03:12:00,1965E-3,5C000000,-0724,0841,12152,026.5,045.4,0.488,738.0,01.18,0.508
2014-06-19 03:13:00,1759E-3,5C000000,-0724,0840,12046,026.5,045.4,0.488,738.1,01.18,0.508
2014-06-19 03:14:00,1852E-3,5C000000,-0724,0840,12135,026.5,045.4,0.488,738.1,01.18,0.508
2014-06-19 03:15:00,1808E-3,5C000000,-0724,0840,12217,026.5,045.5,0.488,738.0,01.18,0.508
2014-06-19 03:16:00,1808E-3,5C000000,-0724,0840,12223,026.5,045.4,0.487,738.0,01.18,0.508
2014-06-19 03:17:00,1775E-3,5C000000,-0724,0840,12046,026.6,045.4,0.487,738.0,01.18,0.508
2014-06-19 03:18:00,1938E-3,5C000000,-0724,0839,12133,026.6,045.4,0.487,738.1,01.18,0.508
2014-06-19 03:19:00,1851E-3,5C000000,-0724,0842,12162,026.6,045.5,0.487,738.0,01.18,0.508
2014-06-19 03:20:00,1869E-3,5C000000,-0724,0840,12245,026.6,045.5,0.487,738.0,01.18,0.508
2014-06-19 03:21:00,1701E-3,5C000000,-0724,0840,12046,026.6,045.4,0.487,737.9,01.18,0.508
2014-06-19 03:22:00,1944E-3,5C000000,-0724,0841,12125,026.6,045.5,0.487,737.9,01.18,0.508
2014-06-19 03:23:00,1925E-3,5C000000,-0724,0840,12164,026.6,045.4,0.487,737.9,01.18,0.508
2014-06-19 03:24:00,1735E-3,5C000000,-0724,0840,11919,026.6,045.4,0.487,737.8,01.18,0.508
2014-06-19 03:25:00,1874E-3,5C000000,-0724,0842,12112,026.6,045.4,0.488,737.9,01.18,0.508
2014-06-19 03:26:00,1844E-3,5C000000,-0724,0841,12075,026.6,045.4,0.488,737.8,01.18,0.508
2014-06-19 03:27:00,1907E-3,5C000000,-0724,0840,12141,026.6,045.5,0.487,737.7,01.18,0.508
2014-06-19 03:28:00,1814E-3,5C000000,-0724,0840,12159,026.6,045.4,0.487,737.7,01.18,0.508
2014-06-19 03:29:00,1841E-3,5C000000,-0724,0841,11940,026.6,045.4,0.487,737.8,01.18,0.508
2014-06-19 03:30:00,1744E-3,5C000000,-0724,0840,12028,026.7,045.5,0.487,737.7,01.18,0.508
2014-06-19 03:31:00,1682E-3,5C000000,-0724,0840,12093,026.7,045.4,0.487,737.9,01.18,0.508
2014-06-19 03:32:00,1881E-3,5C000000,-0724,0840,12100,026.6,045.4,0.487,738.0,01.18,0.508
2014-06-19 03:33:00,1756E-3,5C000000,-0724,0841,12009,026.7,045.5,0.487,738.0,01.18,0.508
2014-06-19 03:34:00,1675E-3,5C000000,-0724,0841,12157,026.7,045.5,0.487,738.0,01.18,0.508
2014-06-19 03:35:00,1904E-3,5C000000,-0724,0842,12259,026.7,045.4,0.487,738.2,01.18,0.508
2014-06-19 03:36:00,1895E-3,5C000000,-0724,0840,12226,026.7,045.5,0.487,738.1,01.18,0.508
2014-06-19 03:37:00,1853E-3,5C000000,-0724,0840,12173,026.7,045.5,0.488,738.3,01.18,0.508
2014-06-19 03:38:00,1917E-3,5C000000,-0724,0840,12140,026.7,045.5,0.488,738.3,01.18,0.508
2014-06-19 03:39:00,1850E-3,5C000000,-0724,0841,12166,026.7,045.5,0.488,738.4,01.18,0.508
2014-06-19 03:40:00,1820E-3,5C000000,-0724,0840,11894,026.7,045.5,0.488,738.4,01.18,0.508
2014-06-19 03:41:00,1833E-3,5C000000,-0724,0840,11938,026.7,045.5,0.488,738.4,01.18,0.508
2014-06-19 03:42:00,1760E-3,5C000000,-0724,0841,12035,026.7,045.5,0.487,738.3,01.18,0.508
2014-06-19 03:43:00,1861E-3,5C000000,-0724,0841,12249,026.7,045.5,0.487,738.2,01.18,0.508
2014-06-19 03:44:00,1918E-3,5C000000,-0724,0842,12126,026.7,045.5,0.487,738.2,01.18,0.508
2014-06-19 03:45:00,1810E-3,5C000000,-0724,0840,12208,026.7,045.4,0.487,738.1,01.18,0.508
2014-06-19 03:46:00,1931E-3,5C000000,-0724,0840,12178,026.7,045.5,0.487,738.1,01.18,0.508
2014-06-19 03:47:00,1668E-3,5C000000,-0724,0840,12069,026.7,045.5,0.487,738.1,01.18,0.508
2014-06-19 03:48:00,1905E-3,5C000000,-0724,0841,12154,026.7,045.5,0.487,738.1,01.18,0.508
2014-06-19 03:49:00,1861E-3,5C000000,-0724,0841,12126,026.7,045.5,0.487,738.1,01.18,0.508
2014-06-19 03:50:00,1965E-3,5C000000,-0724,0840,11809,026.7,045.4,0.487,738.1,01.18,0.508
2014-06-19 03:51:00,1852E-3,5C000000,-0724,0841,12167,026.7,045.4,0.487,738.1,01.18,0.508
2014-06-19 03:52:00,1851E-3,5C000000,-0724,0841,12188,026.7,045.4,0.487,738.1,01.18,0.508
2014-06-19 03:53:00,1817E-3,5C000000,-0724,0841,12119,026.8,045.4,0.487,738.1,01.18,0.508
2014-06-19 03:54:00,1781E-3,5C000000,-0724,0841,12125,026.8,045.4,0.487,738.1,01.18,0.508
2014-06-19 03:55:00,1929E-3,5C000000,-0724,0841,11907,026.8,045.5,0.487,738.1,01.18,0.508
2014-06-19 03:56:00,1973E-3,5C000000,-0724,0840,12106,026.8,045.5,0.487,738.1,01.18,0.508
2014-06-19 03:57:00,1772E-3,5C000000,-0724,0840,11915,026.8,045.4,0.487,738.0,01.18,0.508
2014-06-19 03:58:00,1743E-3,5C000000,-0724,0840,12160,026.8,045.5,0.487,738.0,01.18,0.508
2014-06-19 03:59:00,1805E-3,5C000000,-0724,0841,12082,026.8,045.5,0.487,737.9,01.18,0.508
2014-06-19 04:00:00,1760E-3,5C000000,-0724,0840,12072,026.8,045.5,0.487,737.8,01.18,0.508
2014-06-19 04:01:00,1900E-3,5C000000,-0724,0841,11968,026.8,045.5,0.487,737.7,01.18,0.508
2014-06-19 04:02:00,1861E-3,5C000000,-0724,0841,12218,026.8,045.5,0.487,737.7,01.18,0.508
2014-06-19 04:03:00,1782E-3,5C000000,-0724,0841,12145,026.8,045.5,0.487,737.7,01.18,0.508
2014-06-19 04:04:00,1919E-3,5C000000,-0724,0840,12018,026.8,045.5,0.487,737.7,01.18,0.508
2014-06-19 04:05:00,1871E-3,5C000000,-0724,0840,12173,026.8,045.4,0.487,737.8,01.18,0.508
2014-06-19 04:06:00,1893E-3,5C000000,-0724,0841,12018,026.8,045.5,0.487,737.9,01.18,0.508
2014-06-19 04:07:00,1870E-3,5C000000,-0724,0840,12154,026.8,045.4,0.487,737.8,01.18,0.508
2014-06-19 04:08:00,1838E-3,5C000000,-0724,0841,11935,026.8,045.4,0.487,737.6,01.18,0.508
2014-06-19 04:09:00,1969E-3,5C000000,-0724,0841,12157,026.8,045.5,0.487,737.4,01.18,0.508
2014-06-19 04:10:00,1727E-3,5C000000,-0724,0840,12132,026.8,045.5,0.487,737.3,01.18,0.508
2014-06-19 04:11:00,1884E-3,5C000000,-0724,0840,12024,026.8,045.5,0.487,737.2,01.18,0.508
2014-06-19 04:12:00,1729E-3,5C000000,-0724,0842,12170,026.8,045.5,0.487,737.2,01.18,0.508
2014-06-19 04:13:00,1808E-3,5C000000,-0724,0841,12100,026.8,045.5,0.487,737.2,01.18,0.508
2014-06-19 04:14:00,1978E-3,5C000000,-0724,0841,12249,026.8,045.5,0.486,737.0,01.18,0.508
2014-06-19 04:15:00,1838E-3,5C000000,-0724,0841,12124,026.8,045.5,0.486,736.8,01.18,0.508
2014-06-19 04:16:00,1784E-3,5C000000,-0724,0841,12078,026.8,045.5,0.487,736.8,01.18,0.508
2014-06-19 04:17:00,1769E-3,5C000000,-0724,0841,12262,026.8,045.5,0.487,736.9,01.18,0.508
2014-06-19 04:18:00,1874E-3,5C000000,-0724,0840,11952,026.9,045.5,0.487,736.9,01.18,0.508
2014-06-19 04:19:00,1784E-3,5C000000,-0724,0841,12257,026.9,045.5,0.487,736.9,01.18,0.508
2014-06-19 04:20:00,1872E-3,5C000000,-0724,0840,12159,026.9,045.5,0.487,737.0,01.18,0.508